Wind_Speed
18 19 19 21 22 24 25 26 28 30 32 34 35 36 37 38 39 40 42 44 46 49 51 52 53 55 56 57 57 58 58 59 61 62 61 61 61 60 60 61 61 60 60
19 20 21 22 23 25 26 27 29 30 32 34 35 36 37 38 39 41 42 44 47 49 51 53 55 57 59 59 60 61 62 62 64 65 65 64 62 61 62 62 61 61 61
21 22 23 25 26 27 28 29 30 32 33 34 36 37 38 39 41 43 45 46 48 50 52 54 56 58 60 62 63 64 65 65 66 67 68 68 66 65 63 62 61 61 61
23 24 26 28 29 30 31 31 32 33 34 35 37 38 39 41 43 45 46 48 50 52 54 56 58 60 62 63 65 66 67 68 68 68 69 70 70 70 67 63 63 62 61
25 27 28 29 30 31 32 32 33 34 35 36 38 39 41 42 44 46 48 51 53 55 57 59 60 62 63 64 66 68 69 70 70 70 70 71 71 71 71 68 65 64 63
25 27 28 29 30 31 32 33 34 34 36 37 38 40 42 43 45 47 49 51 53 56 58 60 62 64 65 66 68 69 71 71 71 72 72 72 72 71 72 71 69 67 65
25 26 28 29 29 30 31 31 32 33 34 35 36 38 40 41 43 45 47 49 51 54 56 59 60 62 64 66 68 69 70 71 72 73 74 74 73 73 72 72 71 70 68
25 25 26 27 28 28 29 29 30 31 33 34 36 37 39 40 42 44 46 48 50 52 55 57 59 61 62 64 66 67 69 71 72 73 74 74 74 74 73 73 73 72 70
23 24 26 27 27 28 29 30 31 33 35 37 38 40 42 44 45 47 49 51 53 54 56 58 59 61 63 64 65 66 67 69 70 71 73 73 73 74 73 73 73 72 70
23 25 26 27 28 29 31 32 34 36 38 40 42 44 46 48 50 52 54 56 57 58 59 60 61 62 63 64 66 67 67 68 69 69 70 70 71 73 73 72 72 72 71
25 26 27 29 31 33 35 36 38 40 42 44 47 49 51 53 55 57 59 60 62 63 64 64 65 65 66 66 67 67 67 68 68 68 69 69 70 71 71 71 71 71 70
27 29 30 32 35 37 39 41 43 45 47 50 52 54 57 59 60 62 63 65 66 66 67 68 68 68 68 69 69 69 69 69 68 69 69 69 70 69 69 69 69 69 68
30 32 34 37 39 41 43 46 48 51 53 56 58 60 62 64 65 67 68 69 69 70 71 71 71 71 71 71 71 71 70 70 69 69 69 68 68 67 67 67 67 67 67
34 37 39 41 44 46 49 51 54 56 59 61 64 66 68 69 70 71 72 73 74 74 74 74 73 73 72 72 72 72 71 70 70 69 68 67 66 66 66 66 65 65 65
39 41 44 46 48 51 54 57 59 61 64 66 69 70 72 74 75 76 77 77 78 77 76 75 74 74 73 73 73 72 71 70 69 68 67 66 65 65 65 64 63 63 63
43 46 48 51 54 57 59 62 64 67 70 72 74 75 77 78 79 79 80 79 78 77 76 75 74 73 72 72 71 70 69 67 66 65 64 63 63 63 63 62 61 61 61
48 50 53 56 59 62 65 67 70 72 74 77 78 80 81 81 82 82 80 79 78 76 75 73 72 70 69 68 67 67 65 64 62 61 60 60 59 60 59 59 60 60 60
52 56 59 61 64 67 70 72 74 76 78 80 82 83 83 83 82 81 79 77 75 73 71 69 68 66 65 64 63 61 60 58 57 57 56 55 55 56 57 57 58 58 59
57 60 63 66 68 71 73 75 77 79 82 83 84 84 83 82 80 78 76 74 72 69 67 66 64 63 61 60 58 57 55 53 52 52 51 52 52 53 54 54 55 55 56
61 64 67 70 72 74 77 79 81 83 84 84 84 83 81 80 77 75 72 69 67 65 63 61 59 58 56 54 53 52 50 49 48 48 48 49 50 51 52 52 52 52 53
65 68 71 73 75 78 80 82 83 85 85 84 82 80 77 75 73 69 66 64 62 60 57 55 54 53 51 49 49 48 47 46 45 45 46 46 47 48 49 50 50 51 52
69 72 74 76 78 80 82 84 84 84 83 81 78 75 72 69 66 63 60 59 57 55 53 51 49 48 47 46 45 44 43 43 42 42 43 44 45 46 47 47 48 49 50
72 74 76 78 79 81 83 84 83 82 79 76 72 68 65 62 60 59 56 54 53 52 49 47 45 43 43 43 42 41 41 42 41 41 42 43 43 44 44 45 45 46 46
75 77 79 80 80 81 82 81 80 77 74 70 66 62 60 57 55 54 53 51 50 48 46 44 42 41 40 40 40 40 41 41 41 41 41 42 42 42 42 43 43 43 42
77 78 80 81 81 81 79 77 74 71 67 63 60 57 56 54 52 50 49 48 46 46 44 42 41 39 38 38 39 39 39 39 40 41 40 41 41 41 41 42 41 40 40
78 79 80 79 79 77 74 70 67 65 62 59 56 54 52 51 49 47 45 44 44 44 43 41 40 39 39 38 39 39 39 39 38 38 38 38 38 38 38 38 38 38 38
Wind_Direction
291 288 287 287 286 285 283 282 280 278 277 277 275 274 273 272 272 272 272 272 272 272 272 273 274 276 277 279 280 282 282 283 283 285 285 285 287 288 288 288 289 290 289
295 293 292 290 288 287 285 283 281 280 278 277 277 276 276 275 274 273 272 271 272 273 275 276 277 278 279 280 281 282 282 283 284 285 285 285 286 287 287 288 289 289 288
294 293 293 292 290 288 286 285 283 281 280 278 278 277 277 277 276 276 275 275 275 276 276 277 278 278 279 280 281 281 282 282 283 284 285 285 286 285 285 286 286 286 286
292 293 293 293 292 291 289 287 286 284 283 282 281 280 280 279 278 278 278 277 277 276 277 277 277 278 278 279 280 281 281 282 282 283 284 285 285 286 286 285 284 284 284
294 295 296 295 294 292 291 290 289 288 287 286 285 284 283 283 282 281 280 279 279 279 278 278 277 278 278 279 279 280 280 281 282 283 283 283 284 285 286 285 284 283 283
298 298 297 296 294 294 293 293 293 292 292 291 289 288 287 286 285 285 284 283 282 281 281 280 279 279 279 279 279 279 280 280 281 282 282 283 283 284 284 284 284 284 283
299 299 298 298 298 298 298 299 299 298 298 297 296 295 294 293 291 290 289 287 286 285 284 283 282 281 281 280 280 280 280 280 281 281 281 282 282 282 282 283 284 284 283
299 298 299 301 302 303 304 303 303 303 303 302 302 301 300 299 297 296 294 292 290 289 287 286 284 283 282 282 281 281 280 280 280 280 280 281 281 281 281 281 282 283 283
299 300 303 304 305 305 305 305 305 305 305 305 305 304 302 301 300 298 297 296 294 293 291 290 288 286 285 283 282 282 281 281 280 280 279 280 280 280 280 280 281 282 282
299 301 303 303 303 304 305 305 304 305 305 305 305 304 303 302 301 299 298 297 295 294 292 291 290 288 287 285 284 284 283 282 281 280 279 279 279 278 279 279 280 280 282
298 299 300 301 302 304 305 305 305 305 306 305 305 304 303 302 301 300 298 297 295 294 293 291 290 289 287 286 285 285 284 282 281 280 279 279 278 278 278 278 279 280 280
296 298 299 300 302 304 305 305 306 306 306 305 304 304 303 302 301 300 298 297 295 294 293 291 290 288 287 286 285 284 283 282 282 280 280 279 278 278 278 278 278 278 278
297 298 300 302 303 304 305 306 306 306 305 305 304 303 303 302 301 300 299 297 296 295 293 292 290 288 287 285 284 283 282 282 281 280 280 279 278 278 278 277 277 277 277
298 300 302 304 305 305 305 305 305 305 305 304 304 303 303 302 301 300 299 298 297 296 294 293 291 289 286 285 283 282 281 280 280 280 279 278 278 278 277 277 277 277 277
299 302 303 304 305 305 304 305 305 305 305 304 304 304 303 303 302 301 300 299 298 297 295 293 290 288 286 284 283 282 281 280 280 279 278 278 277 276 276 277 277 277 277
301 303 304 304 304 304 304 305 305 305 305 305 304 304 303 303 302 302 301 300 298 297 295 293 291 289 287 285 284 283 282 281 280 279 278 277 276 276 275 275 275 276 276
302 303 303 304 304 305 305 306 306 306 305 305 305 305 304 304 303 303 301 300 298 296 294 293 291 289 288 286 285 284 283 282 280 279 278 277 276 276 275 275 275 275 275
302 303 304 305 306 306 306 306 306 306 306 306 306 306 305 305 304 303 301 300 298 296 294 292 291 290 288 286 285 284 284 283 281 279 278 277 277 276 276 276 276 277 277
304 304 305 305 306 306 306 306 307 307 307 307 307 307 306 305 304 303 301 300 298 296 294 293 291 290 289 287 286 285 285 283 282 280 279 278 277 277 277 277 277 277 277
303 304 305 306 306 306 307 307 308 308 308 308 308 308 307 306 305 303 301 300 298 296 295 294 293 291 290 289 288 287 286 284 282 281 280 279 278 278 278 279 279 278 278
305 305 306 307 307 307 308 308 309 309 309 309 309 308 307 306 305 303 302 300 299 298 297 296 295 293 291 291 290 289 287 285 284 282 281 281 281 281 280 281 281 280 280
305 306 306 307 308 309 309 309 310 310 310 310 309 309 308 306 305 304 303 302 301 300 299 298 296 294 293 292 291 290 288 286 285 284 283 283 283 283 283 283 283 282 282
305 306 307 308 309 310 310 310 310 311 311 311 310 309 308 307 306 305 304 304 303 302 301 299 298 296 295 294 293 291 289 288 286 286 286 286 285 285 285 285 285 285 286
306 307 308 309 310 310 310 311 311 312 312 312 311 310 309 308 307 306 305 304 304 303 302 301 299 297 295 294 293 292 291 289 289 289 288 288 286 286 286 287 288 288 288
307 308 309 310 310 311 311 311 312 312 312 313 312 311 310 309 308 306 306 306 305 304 303 302 300 298 296 295 294 293 291 290 289 290 290 289 288 287 287 288 288 288 289
307 308 309 310 311 311 312 312 312 312 313 314 313 312 311 310 309 308 307 307 307 305 304 303 302 301 299 298 296 295 293 292 292 292 292 291 290 290 290 290 290 290 290
Height
5823 5821 5818 5816 5814 5811 5810 5807 5805 5803 5801 5799 5797 5796 5795 5794 5793 5791 5789 5786 5783 5780 5778 5776 5773 5770 5768 5765 5763 5760 5757 5754 5749 5746 5745 5743 5740 5738 5734 5729 5726 5723 5718
5816 5814 5812 5810 5808 5806 5803 5801 5799 5796 5794 5791 5789 5787 5785 5784 5782 5780 5778 5775 5772 5770 5767 5765 5762 5758 5755 5753 5750 5746 5743 5740 5736 5732 5728 5727 5728 5724 5719 5716 5712 5708 5704
5810 5808 5806 5803 5801 5799 5796 5794 5791 5788 5786 5783 5781 5778 5776 5774 5772 5769 5766 5764 5762 5759 5756 5753 5749 5746 5742 5739 5736 5732 5728 5725 5722 5717 5712 5709 5709 5708 5707 5703 5699 5694 5690
5804 5801 5799 5796 5793 5790 5788 5785 5783 5780 5777 5775 5772 5769 5767 5764 5761 5759 5756 5753 5750 5747 5743 5740 5736 5732 5729 5725 5721 5717 5713 5708 5706 5702 5698 5694 5690 5687 5687 5688 5684 5679 5675
5798 5794 5791 5788 5785 5782 5779 5776 5773 5771 5768 5765 5763 5760 5757 5754 5751 5748 5745 5741 5737 5734 5730 5726 5722 5718 5714 5711 5706 5701 5697 5693 5689 5686 5682 5678 5674 5669 5665 5666 5666 5662 5659
5790 5787 5783 5779 5776 5773 5770 5767 5765 5762 5759 5756 5753 5750 5746 5743 5740 5736 5733 5729 5725 5721 5716 5712 5708 5704 5700 5695 5691 5685 5681 5677 5673 5668 5664 5660 5657 5654 5648 5644 5644 5643 5641
5783 5779 5775 5772 5769 5765 5762 5759 5756 5753 5749 5746 5743 5739 5735 5732 5728 5724 5720 5716 5712 5707 5702 5696 5692 5688 5683 5678 5673 5669 5664 5659 5655 5651 5646 5642 5639 5635 5630 5626 5624 5621 5620
5775 5772 5768 5765 5761 5758 5755 5751 5748 5744 5741 5737 5733 5729 5725 5720 5716 5712 5707 5702 5697 5692 5687 5681 5676 5671 5666 5661 5655 5651 5646 5641 5637 5632 5628 5623 5620 5616 5612 5608 5603 5600 5600
5768 5765 5761 5758 5754 5751 5747 5744 5740 5736 5732 5728 5723 5719 5714 5709 5704 5699 5694 5688 5683 5677 5671 5665 5660 5654 5648 5643 5637 5633 5628 5623 5618 5613 5609 5604 5601 5596 5592 5588 5584 5580 5578
5761 5758 5755 5751 5747 5744 5740 5736 5732 5728 5723 5718 5713 5708 5703 5697 5692 5686 5680 5674 5668 5661 5655 5649 5642 5636 5630 5624 5618 5614 5609 5603 5599 5594 5589 5585 5581 5576 5572 5568 5565 5560 5557
5755 5751 5747 5743 5739 5735 5731 5727 5722 5718 5713 5708 5702 5696 5690 5684 5678 5671 5665 5658 5651 5645 5638 5631 5625 5618 5612 5605 5599 5594 5589 5583 5579 5574 5569 5565 5560 5556 5552 5548 5544 5541 5537
5747 5744 5740 5735 5731 5727 5722 5717 5712 5707 5701 5695 5689 5683 5676 5670 5663 5655 5648 5641 5634 5626 5619 5612 5605 5599 5592 5585 5579 5574 5568 5563 5559 5554 5548 5545 5539 5536 5531 5527 5524 5521 5517
5739 5735 5731 5726 5722 5717 5712 5706 5701 5695 5688 5682 5675 5668 5661 5653 5646 5638 5630 5622 5614 5606 5599 5591 5585 5578 5571 5564 5558 5552 5547 5542 5538 5533 5528 5524 5518 5515 5511 5507 5504 5501 5498
5730 5726 5722 5717 5712 5706 5700 5694 5688 5682 5675 5667 5660 5652 5644 5636 5627 5619 5610 5602 5593 5585 5578 5570 5562 5555 5549 5542 5535 5530 5525 5521 5516 5512 5507 5503 5498 5494 5490 5487 5485 5481 5478
5721 5716 5711 5706 5701 5694 5688 5682 5675 5667 5659 5651 5643 5634 5625 5616 5607 5598 5589 5580 5571 5562 5554 5547 5539 5532 5525 5518 5512 5507 5503 5499 5495 5490 5486 5482 5477 5474 5470 5468 5466 5462 5460
5711 5706 5700 5694 5688 5681 5674 5667 5659 5651 5642 5633 5624 5615 5606 5596 5586 5576 5567 5557 5548 5539 5530 5522 5515 5508 5501 5494 5489 5484 5481 5477 5473 5469 5465 5460 5457 5454 5451 5449 5446 5444 5442
5700 5694 5688 5681 5674 5666 5659 5651 5642 5633 5624 5614 5604 5594 5584 5574 5564 5554 5544 5534 5525 5516 5507 5499 5491 5485 5478 5471 5467 5462 5458 5456 5452 5448 5444 5441 5438 5434 5432 5430 5428 5426 5423
5687 5680 5673 5666 5658 5650 5642 5633 5624 5614 5604 5594 5583 5572 5562 5552 5541 5531 5521 5511 5501 5493 5485 5477 5469 5463 5457 5450 5446 5441 5438 5435 5432 5429 5426 5423 5420 5416 5414 5412 5410 5407 5404
5673 5665 5658 5650 5642 5633 5624 5615 5605 5595 5584 5573 5562 5551 5539 5528 5518 5508 5498 5488 5479 5471 5463 5456 5448 5442 5437 5431 5427 5423 5420 5418 5414 5411 5408 5405 5403 5399 5396 5395 5394 5391 5387
5659 5650 5642 5633 5624 5615 5605 5596 5585 5574 5564 5553 5541 5529 5516 5505 5495 5485 5476 5467 5458 5450 5443 5437 5430 5423 5419 5414 5410 5406 5404 5401 5398 5395 5392 5389 5386 5383 5380 5378 5376 5374 5370
5642 5634 5625 5615 5605 5595 5586 5576 5565 5554 5543 5531 5520 5508 5496 5484 5474 5464 5456 5446 5439 5432 5425 5419 5413 5407 5402 5398 5394 5391 5388 5386 5383 5381 5377 5374 5370 5368 5365 5362 5360 5357 5352
5626 5617 5608 5598 5587 5575 5565 5556 5545 5534 5523 5512 5501 5489 5477 5466 5455 5446 5438 5430 5422 5416 5410 5404 5399 5393 5388 5384 5380 5377 5374 5371 5369 5366 5363 5360 5356 5353 5350 5347 5344 5340 5336
5608 5599 5590 5581 5570 5556 5544 5534 5524 5513 5503 5493 5481 5470 5460 5450 5439 5430 5423 5416 5408 5401 5396 5390 5386 5381 5376 5371 5367 5364 5361 5358 5355 5353 5350 5346 5342 5339 5335 5332 5329 5325 5320
5591 5581 5572 5563 5553 5540 5527 5513 5503 5493 5484 5474 5464 5454 5444 5436 5427 5417 5409 5402 5395 5389 5383 5378 5374 5370 5365 5360 5356 5353 5349 5346 5342 5339 5336 5332 5329 5325 5322 5318 5315 5311 5306
5573 5563 5553 5543 5533 5522 5510 5497 5485 5475 5467 5458 5449 5439 5430 5421 5414 5406 5398 5390 5384 5377 5372 5367 5362 5358 5355 5350 5345 5341 5338 5334 5331 5327 5324 5319 5316 5312 5309 5305 5301 5298 5294
5556 5546 5535 5524 5514 5503 5493 5482 5471 5461 5451 5443 5435 5426 5417 5409 5401 5394 5388 5381 5374 5367 5361 5355 5351 5347 5343 5338 5334 5330 5326 5322 5318 5315 5311 5307 5303 5300 5296 5293 5289 5286 5282